Location: Arrakis Observatory
(44.1122°N, 95.7153°W)
Time: 08:40:20
(UTC-05:00)

Daily predictions for brighter satellites

Satellite Brightness Start Highest point End
(mag) Time Altitude Azimuth Time Altitude Azimuth Time Altitude Azimuth
CENTAUR R/B 3.8 21:20:04 10° NW 21:27:46 56° WSW 21:35:55 10° SSE
Cosmos 923 Rocket 4.4 21:22:37 10° SSW 21:27:56 74° WNW 21:33:15 10° NNE
Meteor 2-13 Rocket 4.5 21:25:45 10° N 21:31:51 89° E 21:37:56 10° S
Helios 1B rocket 2.4 21:28:37 10° NNE 21:32:46 79° ESE 21:36:54 10° S
Meteor 1-29 2.9 21:31:19 10° NNE 21:34:42 66° ESE 21:38:01 10° S
Cosmos 1980 Rocket 4.3 21:32:08 10° N 21:35:23 15° NE 21:38:37 10° ENE
DNEPR-1 R/B 4.4 21:34:09 10° NW 21:38:16 48° WSW 21:42:43 10° SSE
Okean 1-7 Rocket 3.7 21:35:17 10° S 21:39:40 59° E 21:44:07 10° NNE
Cosmos 405 Rocket 3.5 21:36:06 10° SSW 21:39:48 56° WNW 21:43:38 10° N
ISS -3.6 21:37:40 10° WSW 21:40:58 77° NNW 21:44:16 10° ENE
CRYOSAT 2 4.5 21:38:26 10° SSE 21:43:11 60° E 21:47:59 10° N
Cosmos 1238 Rocket 4.1 21:37:11 10° S 21:43:54 74° E 21:50:15 10° NNE
ARGOS 4.0 21:39:58 10° SE 21:44:54 37° ENE 21:49:51 10° N
OAO 2 Rocket 4.4 21:41:17 10° WSW 21:45:25 27° S 21:49:22 11° SE
Cosmos 1606 Rocket 4.0 21:42:15 10° N 21:46:23 43° ENE 21:50:29 10° SSE
Cosmos 1441 Rocket 3.1 21:43:29 10° S 21:47:13 88° W 21:50:59 10° N
USA 186 4.4 21:48:48 10° SW 21:51:04 18° W 21:53:18 10° NW
Aureole 1 Rocket 3.0 21:49:00 10° SW 21:52:06 52° WNW 21:55:02 10° NNE
Cosmos 2341 Rocket 4.4 21:46:02 10° N 21:52:14 52° ENE 21:58:24 10° SSE
Aureole 3 Rocket 3.9 21:47:07 10° SSW 21:52:59 65° W 21:57:12 10° N
CZ-3A R/B 1.5 21:50:17 10° SSW 21:53:42 25° SSE 21:55:14 11° E
ASTEX 1 3.4 21:49:08 10° S 21:54:02 83° E 21:58:57 10° N
Cosmos 1025 Rocket 2.9 21:51:16 10° S 21:55:31 78° E 21:59:48 10° N
Cosmos 1726 Rocket 4.0 21:51:32 10° N 21:55:43 45° ENE 21:59:25 12° SSE
NOAA 11 4.3 21:50:55 10° SSE 21:56:16 63° ENE 22:01:38 10° N
Lacrosse 5 rocket 4.2 21:53:39 10° NW 21:56:40 17° N 21:59:42 10° NE
Meteor 1-23 Rocket 4.2 21:53:28 10° S 21:59:02 85° E 22:04:42 10° NNE
Okean 2 3.3 21:56:46 10° S 22:00:49 68° E 22:04:53 10° NNE
MetOp-B 4.3 21:57:15 10° SSE 22:02:27 65° ENE 22:07:45 10° N
USA 245 3.4 22:03:29 18° ESE 22:04:37 26° ENE 22:06:37 10° NNE
Cosmos 1624 Rocket 4.1 22:00:31 10° NNW 22:05:50 87° WSW 22:10:48 12° SSE
SL-27 R/B 4.1 22:03:20 10° SW 22:06:47 39° WNW 22:10:14 10° N
Intercosmos 24 3.9 22:07:09 10° NNW 22:10:58 70° W 22:14:29 10° S
H-2A R/B 2.7 22:09:14 15° SE 22:12:53 39° ENE 22:17:36 10° N
Cosmos 2058 Rocket 3.4 22:08:44 10° N 22:13:04 52° ENE 22:16:18 17° SSE
Cosmos 2278 3.8 22:07:54 10° NNW 22:13:38 74° ENE 22:18:12 16° SSE
Cosmos 2082 Rocket 2.7 22:08:36 10° S 22:13:47 38° ESE 22:18:58 10° NE
YAOGAN 11 4.0 22:15:54 16° SSE 22:19:20 76° ENE 22:23:42 10° N
Meteor 1-15 Rocket 4.5 22:13:49 10° NNW 22:19:23 69° W 22:24:53 10° S
YAOGAN 6 4.0 22:18:27 10° SSW 22:21:39 33° W 22:24:53 10° NNW
Meteor 1-4 Rocket 3.6 22:18:44 10° N 22:21:56 30° ENE 22:23:30 21° ESE
Cosmos 2181 Rocket 4.0 22:17:01 10° S 22:23:18 68° E 22:29:32 10° NNE
NOSS 8 (E) 4.4 22:20:20 10° SSW 22:23:44 63° SE 22:27:28 10° NE
Cosmos 1295 Rocket 4.5 22:18:40 10° N 22:24:53 75° E 22:30:08 15° SSE
Cosmos 2056 Rocket 3.8 22:20:11 10° NNW 22:25:18 63° WSW 22:29:39 14° S
MOS 1-B Rocket 4.2 22:23:05 12° S 22:28:31 78° WSW 22:35:10 10° NNW
Cosmos 1697 Rocket 3.1 22:26:05 10° NNW 22:31:36 53° ENE 22:35:16 21° SE
Cosmos 2369 3.8 22:28:06 10° NNW 22:33:52 79° WSW 22:38:00 19° SSE
H-2A R/B 3.3 22:32:00 19° ESE 22:34:23 30° ENE 22:38:19 10° N
Cosmos 1656 3.6 22:29:08 10° NNW 22:34:37 77° ENE 22:38:15 22° SSE
Tiangong 2 1.0 22:31:30 10° W 22:34:39 70° S 22:36:17 26° E
Landsat 7 4.2 22:35:40 23° SE 22:38:26 49° ENE 22:43:01 10° N
SL-16 R/B 4.2 22:35:26 10° N 22:39:06 17° NE 22:42:46 10° E
Cosmos 1420 Rocket 4.4 22:37:06 10° NNW 22:42:15 52° ENE 22:45:12 24° SE
Cosmos 1626 Rocket 4.0 22:42:37 27° SE 22:44:29 43° E 22:48:36 10° NNE
COSMOS 2487 2.8 22:44:48 10° SSW 22:48:21 68° WNW 22:51:55 10° NNE
Cosmos 1833 Rocket 2.6 22:43:08 10° SSW 22:48:42 68° ESE 22:54:18 10° NNE
Cosmos 1437 Rocket 4.5 22:46:03 10° NNW 22:49:21 28° W 22:52:43 10° SSW
Cosmos 1271 Rocket 4.0 22:48:05 10° NNE 22:51:30 28° ENE 22:52:36 24° ESE
Terra 2.3 22:51:09 27° SE 22:53:27 49° ENE 22:58:02 10° N
Cosmos 2228 3.3 22:52:43 10° NNW 22:56:59 62° W 22:59:30 23° S
Cosmos 1452 Rocket 3.5 22:51:56 10° NNW 22:57:13 80° WSW 23:00:11 27° SSE
Cosmos 921 Rocket 4.2 22:54:37 10° NNW 22:58:47 38° W 23:01:36 18° SSW
SL-8 Rocket 4.1 22:52:57 10° N 22:59:14 81° W 23:03:38 21° S
SPOT 5 3.4 22:58:01 18° SSW 23:00:52 44° W 23:05:05 10° NNW
SPOT 1/Viking Rocket 3.8 23:01:13 23° S 23:04:29 65° WSW 23:09:37 10° NNW
Cosmos 2366 rocket 3.9 22:59:25 10° N 23:05:37 85° E 23:09:15 26° S
Cosmos 1066 Rocket 4.2 23:02:27 16° SSW 23:06:54 82° W 23:12:36 10° N
USA 267 4.5 23:03:58 10° ENE 23:07:57 20° ESE 23:07:57 20° ESE
Cosmos 1544 3.8 23:08:54 10° N 23:12:18 37° ENE 23:12:44 35° E
Cosmos 1953 3.6 23:10:51 10° NNE 23:14:21 27° ENE 23:15:05 25° E
Lacrosse 5 3.9 23:17:42 12° E 23:17:42 12° E 23:18:26 10° E
Spot 4 4.5 23:13:49 31° ESE 23:15:34 43° ENE 23:20:08 10° N
ISS -1.4 23:15:02 10° WNW 23:17:50 24° N 23:20:37 10° NE
Cosmos 2360 Rocket 4.5 23:15:05 10° N 23:18:16 15° NE 23:21:26 10° ENE
Cosmos 1602 Rocket 3.5 23:17:48 32° SSW 23:19:47 81° W 23:24:08 10° N
Cosmos 1980 Rocket 2.2 23:14:42 10° NNW 23:20:24 77° ENE 23:22:51 35° SE
Cosmos 1766 3.2 23:21:44 10° N 23:25:39 84° W 23:26:31 53° S
deb Chang Zheng 4 3.4 23:26:11 10° NNE 23:30:31 78° ESE 23:31:44 46° S
Cosmos 2322 Rocket 3.2 23:26:13 10° NNW 23:31:29 37° NE 23:34:12 24° ESE
Meteor 1-21 4.2 23:31:31 32° S 23:34:18 85° E 23:40:05 10° NNE
Lacrosse 5 rocket 3.1 23:32:56 10° NW 23:37:09 33° NNE 23:40:10 16° E
USA 229 DEB 3.8 23:32:29 10° NW 23:39:39 83° WSW 23:43:05 35° SSE
USA 229 3.8 23:32:36 10° NW 23:39:46 84° SW 23:43:12 35° SSE
Cosmos 1470 4.0 23:37:40 10° NNE 23:41:11 28° ENE 23:41:27 28° E
Timation 2 Rocket 4.0 23:37:07 13° SSW 23:42:53 77° WNW 23:49:03 10° NNE
Cosmos 158 Rocket 4.1 23:42:20 28° SSW 23:45:11 81° WNW 23:50:37 10° NNE
CARTOSAT-1 4.2 23:44:16 37° SW 23:45:29 48° W 23:49:42 10° NNW
DELTA 2 DEB (DPAF) 4.1 23:46:12 54° SE 23:47:08 77° ENE 23:51:38 10° N
Cosmos 1707 4.4 23:51:28 22° ENE 23:51:28 22° ENE 23:53:58 10° NE
Cosmos 1934 Rocket 4.4 23:44:48 10° N 23:50:59 50° ENE 23:53:14 35° SE
H-2A R/B 3.6 23:49:51 17° SW 23:52:26 26° W 23:56:39 10° NW
CZ-2C R/B 3.9 23:47:57 10° NE 23:52:34 26° E 23:53:11 25° ESE
CZ-4B R/B 3.4 23:49:07 10° NNE 23:54:14 87° ESE 23:55:59 44° SSW
Cosmos 1805 3.2 23:51:55 10° NNW 23:55:49 69° W 23:56:07 65° SW
